TimeMDT,TemperatureF,Dew PointF,Humidity,Sea Level PressureIn,VisibilityMPH,Wind Direction,Wind SpeedMPH,Gust SpeedMPH,PrecipitationIn,Events,Conditions,WindDirDegrees,DateUTC
12:55 AM,41.0,17.1,38,30.16,10.0,North,4.6,-,N/A,,Clear,360,2013-04-19 06:55:00
1:55 AM,39.9,17.1,40,30.15,10.0,WNW,4.6,-,N/A,,Overcast,300,2013-04-19 07:55:00
2:55 AM,37.9,18.0,45,30.14,10.0,SSE,3.5,-,N/A,,Overcast,150,2013-04-19 08:55:00
3:55 AM,37.9,18.0,45,30.11,10.0,SSE,3.5,-,N/A,,Overcast,160,2013-04-19 09:55:00
4:55 AM,39.0,18.0,43,30.09,10.0,Calm,Calm,-,N/A,,Overcast,0,2013-04-19 10:55:00
5:55 AM,39.0,18.0,43,30.07,10.0,Calm,Calm,-,N/A,,Overcast,0,2013-04-19 11:55:00
6:55 AM,39.0,19.0,45,30.06,10.0,Calm,Calm,-,N/A,,Overcast,0,2013-04-19 12:55:00
7:55 AM,41.0,21.0,45,30.05,10.0,Calm,Calm,-,N/A,,Overcast,0,2013-04-19 13:55:00
8:55 AM,43.0,21.0,42,30.06,10.0,Calm,Calm,-,N/A,,Mostly Cloudy,0,2013-04-19 14:55:00
9:55 AM,46.9,24.1,41,30.01,10.0,SE,6.9,-,N/A,,Overcast,130,2013-04-19 15:55:00
10:55 AM,48.0,27.0,44,30.01,10.0,South,10.4,-,0.00,,Overcast,170,2013-04-19 16:55:00
11:55 AM,48.9,28.0,44,29.97,10.0,Variable,5.8,-,N/A,,Overcast,0,2013-04-19 17:55:00
12:55 PM,51.1,28.9,43,29.94,10.0,Variable,6.9,-,N/A,,Overcast,0,2013-04-19 18:55:00
1:55 PM,51.1,28.9,43,29.91,10.0,South,6.9,-,0.00,,Overcast,180,2013-04-19 19:55:00
2:55 PM,52.0,28.9,41,29.89,10.0,SSE,9.2,-,0.00,,Overcast,150,2013-04-19 20:55:00
3:55 PM,53.1,28.9,40,29.86,10.0,SW,18.4,23.0,N/A,,Overcast,230,2013-04-19 21:55:00
4:55 PM,52.0,28.9,41,29.84,10.0,Calm,Calm,-,0.00,Rain,Light Rain,0,2013-04-19 22:55:00
5:55 PM,55.0,28.0,35,29.84,10.0,WNW,8.1,-,0.00,,Overcast,300,2013-04-19 23:55:00
6:55 PM,53.1,28.0,38,29.85,10.0,WNW,12.7,21.9,N/A,,Mostly Cloudy,290,2013-04-20 00:55:00
7:55 PM,48.9,27.0,43,29.86,10.0,West,15.0,-,N/A,,Overcast,270,2013-04-20 01:55:00
8:55 PM,46.0,28.0,50,29.87,10.0,Calm,Calm,-,N/A,,Overcast,0,2013-04-20 02:55:00
9:55 PM,44.1,27.0,51,29.88,10.0,Calm,Calm,-,N/A,,Overcast,0,2013-04-20 03:55:00
10:55 PM,44.1,27.0,51,29.89,10.0,Calm,Calm,-,N/A,,Overcast,0,2013-04-20 04:55:00
11:55 PM,44.1,30.0,58,29.90,10.0,NNE,5.8,-,N/A,,Overcast,20,2013-04-20 05:55:00